Stations météo

réclame
Mon MeteoGroup
Cap Bear, France (7749): Température de l'air & dewpoint: 12.02.2019 02:00:00 - 18.02.2019 02:00:00 (CET)Cap Bear, France (7749): Vitesse du vent & gusts: 12.02.2019 02:00:00 - 18.02.2019 02:00:00 (CET)Cap Bear, France (7749): Direction du vent: 12.02.2019 02:00:00 - 18.02.2019 02:00:00 (CET)Cap Bear, France (7749): reduced air pressure: 12.02.2019 02:00:00 - 18.02.2019 02:00:00 (CET)Cap Bear, France (7749): visibility: 12.02.2019 02:00:00 - 18.02.2019 02:00:00 (CET)Cap Bear, France (7749): Quantités de précipitations: 12.02.2019 02:00:00 - 18.02.2019 02:00:00 (CET)
Date & Time tt [°C] td [°C] ff [km/h] ff [knt] fx [km/h] fx [knt] dd ppp [hPa] vv [km] rr [mm]
18.02.2019 02:00:00 - - - - - - - - - -
18.02.2019 01:00:00 11,0 7,1 43 23 55 30 S 1023,2 - 0,0
18.02.2019 00:00:00 11,0 7,1 39 21 53 29 S 1023,9 - 0,0
17.02.2019 23:00:00 11,3 7,4 37 20 51 28 S 1024,2 - 0,0
17.02.2019 22:00:00 11,4 7,5 37 20 54 29 S 1024,3 - 0,0
17.02.2019 21:00:00 11,6 7,9 45 24 63 34 S 1023,7 - 0,0
17.02.2019 20:00:00 11,8 8,3 57 31 73 39 S 1023,1 - 0,0
17.02.2019 19:00:00 12,0 8,3 61 33 75 40 S 1022,5 - 0,0
17.02.2019 18:00:00 12,2 8,7 58 31 73 39 S 1022,0 - 0,0
17.02.2019 17:00:00 12,7 9,0 58 32 68 37 SSE 1022,6 - 0,0
17.02.2019 16:00:00 12,9 9,5 58 31 67 36 SSE 1022,8 20 0,0
17.02.2019 15:00:00 13,6 9,8 55 30 65 35 SSE 1023,1 - 0,0
17.02.2019 14:00:00 15,9 7,9 37 20 62 34 S 1024,2 - 0,0
17.02.2019 13:00:00 15,0 7,0 52 28 75 41 S 1024,4 15 0,0
17.02.2019 12:00:00 15,0 3,5 45 24 67 36 SSW 1025,3 - 0,0
17.02.2019 11:00:00 15,3 -0,5 40 22 59 32 S 1025,7 - 0,0
17.02.2019 10:00:00 14,7 -0,2 27 15 50 27 S 1026,2 15 0,0
17.02.2019 09:00:00 13,7 -3,6 34 18 50 27 SSW 1025,9 - 0,0
17.02.2019 08:00:00 11,7 -4,1 31 17 45 24 S 1025,9 - 0,0
17.02.2019 07:00:00 11,1 -3,8 24 13 37 20 SSW 1026,0 15 0,0
17.02.2019 06:00:00 11,1 -2,0 22 12 44 24 S 1025,8 - 0,0
17.02.2019 05:00:00 12,2 -5,8 27 15 42 23 SSW 1025,6 - 0,0
17.02.2019 04:00:00 11,5 -1,3 19 11 42 23 S 1025,9 15 0,0
17.02.2019 03:00:00 11,5 0,3 21 11 38 21 S 1026,3 - 0,0
17.02.2019 02:00:00 11,3 3,1 17 9 41 22 S 1026,7 - 0,0
17.02.2019 01:00:00 12,4 1,7 31 17 53 28 SSW 1026,8 - 0,0
17.02.2019 00:00:00 12,0 2,2 25 13 43 23 SSW 1027,0 - 0,0
16.02.2019 23:00:00 11,8 2,5 19 11 29 16 S 1027,4 - 0,0
16.02.2019 22:00:00 11,2 4,2 12 6 24 13 S 1027,7 - 0,0
16.02.2019 21:00:00 10,7 4,8 11 6 22 12 SSE 1027,8 - 0,0
16.02.2019 20:00:00 10,6 8,4 22 12 34 19 S 1027,8 - 0,0
16.02.2019 19:00:00 11,0 9,3 30 16 45 24 SSE 1027,8 - 0,0
16.02.2019 18:00:00 11,3 9,6 39 21 46 25 SSE 1027,3 - 0,0
16.02.2019 17:00:00 11,4 9,5 39 21 46 25 SSE 1027,5 - 0,0
16.02.2019 16:00:00 11,3 9,6 43 23 49 26 SSE 1027,8 12 0,0
16.02.2019 15:00:00 11,5 9,4 40 21 44 24 SSE 1028,8 - 0,0
16.02.2019 14:00:00 12,2 9,6 21 11 26 14 SE 1029,7 - 0,0
16.02.2019 13:00:00 11,6 8,3 7 4 16 9 SE 1030,4 - 0,0
16.02.2019 12:00:00 10,3 7,5 5 3 9 5 NNE 1031,2 - 0,2
16.02.2019 11:00:00 9,1 7,2 4 2 7 4 NNE 1031,2 - 0,0
16.02.2019 10:00:00 8,8 7,6 4 2 10 5 N 1031,0 12 0,0
16.02.2019 09:00:00 7,8 6,7 5 3 10 5 NNW 1031,0 - 0,0
16.02.2019 08:00:00 8,2 7,1 5 3 7 4 SSE 1030,4 - 0,0
16.02.2019 07:00:00 8,0 6,8 6 4 7 4 E 1030,2 - 0,0
16.02.2019 06:00:00 8,1 6,7 2 1 8 4 NW 1029,8 - 0,0
16.02.2019 05:00:00 8,3 6,8 3 2 8 5 NW 1029,6 - 0,0
16.02.2019 04:00:00 8,7 6,8 3 2 8 5 N 1029,5 - 0,0
16.02.2019 03:00:00 9,1 7,2 8 4 15 8 NW 1029,6 - 0,0
16.02.2019 02:00:00 9,1 7,0 14 8 22 12 NW 1029,3 - 0,0
16.02.2019 01:00:00 9,3 7,1 19 10 26 14 NW 1029,3 - 0,0
16.02.2019 00:00:00 9,4 7,2 23 12 29 16 WNW 1029,0 - 0,0
15.02.2019 23:00:00 9,6 7,5 25 13 31 17 WNW 1029,2 - 0,0
15.02.2019 22:00:00 9,5 6,8 19 10 27 15 WNW 1029,4 - 0,0
15.02.2019 21:00:00 10,4 7,5 22 12 30 16 WNW 1029,2 - 0,0
15.02.2019 20:00:00 10,5 6,6 26 14 29 15 WNW 1029,0 - 0,0
15.02.2019 19:00:00 9,9 7,0 24 13 28 15 WNW 1029,1 - 0,0
15.02.2019 18:00:00 9,7 7,6 14 8 16 8 NW 1029,0 - 0,0
15.02.2019 17:00:00 10,4 7,8 11 6 16 9 NW 1028,9 - 0,0
15.02.2019 16:00:00 9,8 7,6 12 7 29 15 NW 1029,0 - 0,0
15.02.2019 15:00:00 9,5 7,1 23 12 29 16 NW 1029,0 - 0,0
15.02.2019 14:00:00 9,8 7,4 16 8 18 10 NW 1029,3 - 0,0
15.02.2019 13:00:00 9,7 7,0 10 5 12 7 N 1030,5 15 0,0
15.02.2019 12:00:00 10,4 7,5 7 4 11 6 NE 1031,2 - 0,0
15.02.2019 11:00:00 9,0 6,8 6 3 9 5 N 1031,3 - 0,0
15.02.2019 10:00:00 8,6 6,7 4 2 7 4 NNW 1031,3 15 0,0
15.02.2019 09:00:00 8,5 7,1 0 0 6 3 N 1031,4 - 0,0
15.02.2019 08:00:00 6,7 5,6 7 4 15 8 NW 1031,0 - 0,0
15.02.2019 07:00:00 6,6 5,4 11 6 16 8 NW 1030,7 - 0,0
15.02.2019 06:00:00 6,8 5,4 11 6 14 8 NW 1030,6 - 0,0
15.02.2019 05:00:00 6,6 5,2 9 5 10 6 NNW 1030,4 - 0,0
15.02.2019 04:00:00 7,4 5,7 5 3 7 4 NNW 1030,5 15 0,0
15.02.2019 03:00:00 8,1 6,1 3 2 5 3 NW 1030,7 - 0,0
15.02.2019 02:00:00 8,7 6,1 0 0 5 3 N 1030,7 - 0,0
15.02.2019 01:00:00 9,2 6,3 3 2 11 6 SE 1030,8 - 0,0
15.02.2019 00:00:00 9,8 6,3 7 4 29 15 NW 1030,7 - 0,0
14.02.2019 23:00:00 9,4 4,8 10 6 24 13 SW 1030,9 - 0,0
14.02.2019 22:00:00 9,7 4,5 9 5 19 11 S 1031,1 - 0,0
14.02.2019 21:00:00 10,0 4,6 7 4 20 11 S 1031,1 - 0,0
14.02.2019 20:00:00 11,2 4,4 20 11 44 24 SSW 1030,9 - 0,0
14.02.2019 19:00:00 11,8 4,0 34 18 42 23 S 1030,6 18 0,0
14.02.2019 18:00:00 11,7 7,2 31 17 50 27 SSE 1030,7 - 0,0
14.02.2019 17:00:00 12,3 7,4 43 23 59 32 SSE 1030,4 - 0,0
14.02.2019 16:00:00 12,5 9,3 56 31 65 35 SSE 1029,9 18 0,0
14.02.2019 15:00:00 12,7 9,1 50 27 55 30 SSE 1030,6 - 0,0
14.02.2019 14:00:00 13,4 8,5 41 22 60 32 SSE 1031,8 - 0,0
14.02.2019 13:00:00 12,8 6,6 37 20 48 26 SSE 1032,7 20 0,0
14.02.2019 12:00:00 12,3 6,1 32 17 42 23 SSE 1033,9 - 0,0
14.02.2019 11:00:00 12,5 7,0 24 13 35 19 SSE 1034,3 - 0,0
14.02.2019 10:00:00 11,9 6,2 17 9 29 15 S 1034,6 18 0,0
14.02.2019 09:00:00 10,0 6,2 19 11 33 18 S 1034,7 - 0,0
14.02.2019 08:00:00 8,4 5,9 27 15 37 20 S 1034,4 - 0,0
14.02.2019 07:00:00 8,1 5,9 23 12 30 16 S 1034,4 20 0,0
14.02.2019 06:00:00 7,7 6,0 19 10 27 15 S 1034,6 - 0,0
14.02.2019 05:00:00 7,5 6,1 13 7 19 10 S 1034,2 - 0,0
14.02.2019 04:00:00 7,3 5,6 5 3 11 6 SSE 1034,2 20 0,0
14.02.2019 03:00:00 7,0 5,1 6 3 14 8 E 1034,5 - 0,0
14.02.2019 02:00:00 8,5 5,2 4 2 10 5 ESE 1034,5 - 0,0
14.02.2019 01:00:00 8,2 4,4 5 3 8 4 SSE 1034,8 - 0,0
14.02.2019 00:00:00 7,9 4,5 2 1 5 3 NW 1034,6 - 0,0
13.02.2019 23:00:00 8,2 4,4 5 3 11 6 NW 1034,5 - 0,0
13.02.2019 22:00:00 8,7 4,5 5 3 9 5 NW 1034,2 - 0,0
13.02.2019 21:00:00 8,9 4,1 0 0 8 4 N 1034,0 - 0,0
13.02.2019 20:00:00 9,3 3,5 6 3 11 6 SSE 1033,7 - 0,0
13.02.2019 19:00:00 8,6 4,4 11 6 13 7 S 1033,4 20 0,0
13.02.2019 18:00:00 9,5 5,3 8 4 10 5 S 1033,1 - 0,0
13.02.2019 17:00:00 10,3 5,5 7 4 11 6 SE 1033,1 - 0,0
13.02.2019 16:00:00 10,2 4,3 8 4 13 7 E 1032,9 - 0,0
13.02.2019 15:00:00 10,6 3,8 6 3 12 7 E 1032,9 - 0,0
13.02.2019 14:00:00 11,8 3,8 9 5 17 9 ENE 1033,3 - 0,0
13.02.2019 13:00:00 9,5 4,3 10 6 16 9 N 1033,8 - 0,0
13.02.2019 12:00:00 9,4 3,4 11 6 21 11 NNW 1033,9 - 0,0
13.02.2019 11:00:00 8,6 1,3 14 8 21 11 NNW 1033,7 - 0,0
13.02.2019 10:00:00 7,3 2,8 14 8 17 9 NW 1033,3 - 0,0
13.02.2019 09:00:00 9,4 3,6 3 2 10 5 E 1032,9 - 0,0
13.02.2019 08:00:00 8,0 1,8 6 3 14 8 NNW 1032,3 - 0,0
13.02.2019 07:00:00 8,0 1,6 9 5 19 10 N 1031,9 - 0,0
13.02.2019 06:00:00 7,5 2,4 14 7 18 10 N 1031,6 - 0,0
13.02.2019 05:00:00 7,9 -1,4 10 6 13 7 N 1031,2 - 0,0
13.02.2019 04:00:00 8,6 0,6 9 5 14 8 N 1030,9 20 0,0
13.02.2019 03:00:00 8,1 -0,9 8 4 21 11 N 1030,8 - 0,0
13.02.2019 02:00:00 8,1 2,1 15 8 36 19 N 1030,5 - 0,0
13.02.2019 01:00:00 9,9 2,3 29 15 44 24 NW 1030,1 - 0,0
13.02.2019 00:00:00 10,7 0,4 29 16 49 27 NW 1030,1 - 0,0
12.02.2019 23:00:00 10,9 0,9 35 19 48 26 WNW 1030,4 - 0,0
12.02.2019 22:00:00 11,0 1,2 34 19 44 24 WNW 1030,8 - 0,0
12.02.2019 21:00:00 11,4 2,7 34 18 52 28 NW 1030,4 - 0,0
12.02.2019 20:00:00 12,2 0,3 34 18 48 26 NW 1030,4 - 0,0
12.02.2019 19:00:00 12,6 -1,0 34 19 43 23 WNW 1030,1 20 0,0
12.02.2019 18:00:00 13,6 -0,8 27 15 38 21 WNW 1029,5 - 0,0
12.02.2019 17:00:00 15,1 0,1 25 14 40 21 NW 1029,4 - 0,0
12.02.2019 16:00:00 15,1 0,1 27 14 42 23 NW 1029,3 25 0,0
12.02.2019 15:00:00 14,2 1,8 36 19 50 27 NW 1029,5 - 0,0
12.02.2019 14:00:00 13,0 3,6 38 21 45 24 NNW 1030,1 - 0,0
12.02.2019 13:00:00 12,9 5,8 34 18 44 24 NNW 1030,7 - 0,0
12.02.2019 12:00:00 11,7 4,2 41 22 66 36 NNW 1031,5 - 0,0
12.02.2019 11:00:00 10,9 4,1 59 32 67 36 NNW 1030,9 - 0,0
12.02.2019 10:00:00 9,7 3,2 46 25 62 34 NW 1032,0 25 0,0
12.02.2019 09:00:00 8,6 3,0 42 23 63 34 NW 1031,9 - 0,0
12.02.2019 08:00:00 8,4 3,2 54 29 86 46 NW 1030,8 - 0,0
12.02.2019 07:00:00 8,6 3,0 56 30 74 40 NW 1030,0 - 0,0
12.02.2019 06:00:00 8,9 3,9 63 34 75 40 NW 1029,8 - 0,0
12.02.2019 05:00:00 8,4 3,2 46 25 71 38 NW 1030,0 - 0,0
12.02.2019 04:00:00 8,8 3,4 50 27 74 40 NW 1030,1 18 0,0
12.02.2019 03:00:00 9,0 3,8 58 31 71 39 NW 1029,7 - 0,0
12.02.2019 02:00:00 8,4 3,8 44 24 78 42 NW 1030,2 - 0,0

tt = Température de l'air
td = dewpoint
ff = Vitesse du vent
fx = gusts
dd = Direction du vent
ppp = reduced air pressure
vv = visibility
rr = Quantités de précipitations

stations d'obs. à proximité